Weather History for KGPH - January, 2013

Change the Weather History Date:

Wednesday, January 30, 2013

  Actual Average (KMCI) Record (KMCI)
Temperature  
Mean Temperature 29 °F 30 °F  
Max Temperature 35 °F 39 °F 68 °F (1890)
Min Temperature 23 °F 20 °F -7 °F (1918)
Degree Days  
Heating Degree Days 36 35  
Month to date heating degree days 1079  
Since 1 July heating degree days 3121  
Cooling Degree Days 0 0  
Month to date cooling degree days 0  
Year to date cooling degree days 0  
Moisture  
Dew Point 23 °F    
Average Humidity 80    
Maximum Humidity 100    
Minimum Humidity 64    
Precipitation  
Precipitation 0.00 in 0.05 in 1.37 in (1999)
Month to date precipitation 1.03  
Year to date precipitation 1.03  
Snow  
Snow 0.00 in 0.10 in 2.00 in (1985)
Month to date snowfall 4.4  
Since 1 July snowfall 10.6  
Snow Depth -    
Sea Level Pressure  
Sea Level Pressure 29.75 in    
Wind  
Wind Speed 13 mph (WNW)    
Max Wind Speed 24 mph    
Max Gust Speed 33 mph    
Visibility 7 miles    
Events Rain , Snow    
T = Trace of Precipitation, MM = Missing Value Source: NWS Daily Summary

Daily Weather History Graph

Daily Weather History Graph

Search for Another Location

Airport or City:

Trip Planner

Search our weather history database for the weather conditions in past years. The results will help you decide how hot, cold, wet, or windy it might be!

Date:

Astronomy

Jan. 30, 2013 Rise Set
Actual Time 7:25 AM CST 5:35 PM CST
Civil Twilight 6:57 AM CST 6:04 PM CST
Nautical Twilight 6:25 AM CST 6:36 PM CST
Astronomical Twilight 5:53 AM CST 7:07 PM CST
Moon 9:33 PM CST (1/30) 8:55 AM CST (1/30)
Length of Visible Light 11h 06m
Length of Day
10h 09m
Waning Gibbous, 87% of the Moon is Illuminated
Jan 30
Waning Gibbous
Feb 3
Last Quarter
Feb 10
New
Feb 17
First Quarter
Feb 25
Full

Hourly Weather History & Observations

Time (CST) Temp. Windchill Dew Point Humidity Pressure Visibility Wind Dir Wind Speed Gust Speed Precip Events Conditions
12:15 AM 35.6 °F 28.0 °F 32.0 °F 87% 29.49 in 10.0 mi NNE 10.4 mph - N/A   Overcast
12:35 AM 35.6 °F 30.7 °F 32.0 °F 87% 29.54 in 10.0 mi NW 5.8 mph - N/A   Overcast
1:15 AM 33.8 °F 28.6 °F 32.0 °F 93% 29.51 in 5.0 mi NNW 5.8 mph - N/A Snow Light Snow
1:35 AM 33.8 °F 28.6 °F 32.0 °F 93% 29.50 in 4.0 mi NW 5.8 mph - N/A Rain Rain
1:55 AM 33.8 °F 28.6 °F 32.0 °F 93% 29.52 in 5.0 mi NW 5.8 mph - N/A Snow Light Snow
2:15 AM 33.8 °F 28.6 °F 32.0 °F 93% 29.51 in 2.0 mi WNW 5.8 mph - N/A Snow Light Snow
2:35 AM 32.0 °F 26.4 °F 32.0 °F 100% 29.52 in 1.5 mi West 5.8 mph - N/A Snow Light Snow
2:55 AM 32.0 °F 25.6 °F 32.0 °F 100% 29.52 in 2.0 mi WNW 6.9 mph - N/A Snow Light Snow
3:15 AM 32.0 °F 24.8 °F 32.0 °F 100% 29.53 in 1.5 mi WNW 8.1 mph - N/A Snow Light Snow
3:35 AM 32.0 °F 23.0 °F 32.0 °F 100% 29.52 in 1.0 mi NW 11.5 mph - N/A Snow Light Snow
3:55 AM 32.0 °F 22.5 °F 32.0 °F 100% 29.52 in 1.5 mi NW 12.7 mph - N/A Snow Light Snow
4:15 AM 32.0 °F 22.1 °F 32.0 °F 100% 29.52 in 1.8 mi NW 13.8 mph 26.5 mph N/A Snow Light Snow
4:35 AM 32.0 °F 20.5 °F 30.2 °F 93% 29.53 in 7.0 mi NNW 18.4 mph 27.6 mph N/A   Overcast
4:55 AM 32.0 °F 19.2 °F 30.2 °F 93% 29.54 in 10.0 mi NNW 23.0 mph 28.8 mph N/A   Overcast
5:15 AM 32.0 °F 20.1 °F 28.4 °F 87% 29.54 in 10.0 mi NNW 19.6 mph 28.8 mph N/A   Overcast
5:35 AM 32.0 °F 20.5 °F 28.4 °F 87% 29.57 in 10.0 mi NW 18.4 mph 24.2 mph N/A   Overcast
5:55 AM 30.2 °F 19.3 °F 26.6 °F 86% 29.58 in 10.0 mi NW 15.0 mph 26.5 mph N/A   Overcast
6:15 AM 30.2 °F 17.8 °F 26.6 °F 86% 29.59 in 7.0 mi NNW 19.6 mph 24.2 mph N/A Snow Light Snow
6:35 AM 30.2 °F 20.2 °F 26.6 °F 86% 29.60 in 3.0 mi NW 12.7 mph 23.0 mph N/A Snow Light Snow
6:55 AM 30.2 °F 17.8 °F 26.6 °F 86% 29.60 in 2.0 mi NNW 19.6 mph 25.3 mph N/A Snow Light Snow
7:15 AM 28.4 °F 15.4 °F 26.6 °F 93% 29.62 in 1.0 mi NW 19.6 mph 27.6 mph N/A Snow Light Snow
7:35 AM 28.4 °F 15.8 °F 24.8 °F 86% 29.63 in 0.8 mi NNW 18.4 mph 27.6 mph N/A Snow Light Snow
7:55 AM 26.6 °F 13.1 °F 23.0 °F 86% 29.65 in 2.5 mi NW 19.6 mph 28.8 mph N/A Snow Light Snow
8:15 AM 26.6 °F 12.7 °F 23.0 °F 86% 29.67 in 0.8 mi NW 20.7 mph 25.3 mph N/A Snow Light Snow
8:35 AM 26.6 °F 13.4 °F 23.0 °F 86% 29.69 in 1.8 mi NW 18.4 mph 28.8 mph N/A Snow Light Snow
8:55 AM 26.6 °F 12.7 °F 23.0 °F 86% 29.70 in 1.5 mi NW 20.7 mph 28.8 mph N/A Snow Light Snow
9:15 AM 26.6 °F 12.7 °F 23.0 °F 86% 29.71 in 1.8 mi NW 20.7 mph 33.4 mph N/A Snow Light Snow
9:35 AM 26.6 °F 14.3 °F 23.0 °F 86% 29.72 in 1.0 mi NW 16.1 mph 23.0 mph N/A Snow Light Snow
9:55 AM 26.6 °F 13.1 °F 23.0 °F 86% 29.73 in 2.0 mi NW 19.6 mph 31.1 mph N/A Snow Light Snow
10:15 AM 26.6 °F 13.4 °F 23.0 °F 86% 29.74 in 2.5 mi NW 18.4 mph 31.1 mph N/A Snow Light Snow
10:35 AM 28.4 °F 15.1 °F 23.0 °F 80% 29.75 in 4.0 mi NW 20.7 mph 27.6 mph N/A Snow Light Snow
10:55 AM 28.4 °F 15.4 °F 23.0 °F 80% 29.77 in 3.0 mi NW 19.6 mph 28.8 mph N/A Snow Light Snow
11:15 AM 28.4 °F 16.2 °F 23.0 °F 80% 29.77 in 7.0 mi NW 17.3 mph 26.5 mph N/A   Overcast
11:35 AM 28.4 °F 15.4 °F 23.0 °F 80% 29.77 in 5.0 mi NW 19.6 mph 29.9 mph N/A   Haze
11:55 AM 28.4 °F 15.8 °F 23.0 °F 80% 29.78 in 10.0 mi NW 18.4 mph 25.3 mph N/A   Overcast
12:15 PM 28.4 °F 15.8 °F 21.2 °F 74% 29.77 in 10.0 mi NW 18.4 mph 31.1 mph N/A   Overcast
12:35 PM 28.4 °F 14.1 °F 21.2 °F 74% 29.77 in 10.0 mi NW 24.2 mph 31.1 mph N/A   Overcast
12:55 PM 28.4 °F 16.6 °F 21.2 °F 74% 29.78 in 10.0 mi NW 16.1 mph 29.9 mph N/A   Overcast
1:15 PM 28.4 °F 16.6 °F 19.4 °F 69% 29.78 in 10.0 mi NW 16.1 mph 26.5 mph N/A   Overcast
1:35 PM 28.4 °F 18.0 °F 21.2 °F 74% 29.79 in 10.0 mi WNW 12.7 mph 25.3 mph N/A   Overcast
1:55 PM 28.4 °F 15.4 °F 19.4 °F 69% 29.79 in 10.0 mi NW 19.6 mph 31.1 mph N/A   Overcast
2:15 PM 28.4 °F 18.0 °F 21.2 °F 74% 29.80 in 10.0 mi WNW 12.7 mph 19.6 mph N/A   Overcast
2:35 PM 28.4 °F 15.1 °F 17.6 °F 64% 29.81 in 10.0 mi NW 20.7 mph 27.6 mph N/A   Overcast
2:55 PM 26.6 °F 14.3 °F 21.2 °F 80% 29.82 in 7.0 mi NW 16.1 mph 21.9 mph N/A Snow Light Snow
3:15 PM 26.6 °F 14.3 °F 19.4 °F 74% 29.83 in 10.0 mi WNW 16.1 mph 26.5 mph N/A Snow Light Snow
3:35 PM 26.6 °F 13.4 °F 19.4 °F 74% 29.83 in 10.0 mi WNW 18.4 mph 26.5 mph N/A Snow Light Snow
3:55 PM 28.4 °F 16.2 °F 17.6 °F 64% 29.84 in 10.0 mi WNW 17.3 mph 33.4 mph N/A   Overcast
4:15 PM 26.6 °F 14.3 °F 19.4 °F 74% 29.85 in 10.0 mi WNW 16.1 mph 24.2 mph N/A Snow Light Snow
4:35 PM 26.6 °F 15.2 °F 19.4 °F 74% 29.85 in 10.0 mi WNW 13.8 mph 23.0 mph N/A   Overcast
4:55 PM 26.6 °F 13.4 °F 17.6 °F 69% 29.86 in 10.0 mi WNW 18.4 mph 25.3 mph N/A   Unknown
5:15 PM 26.6 °F 14.7 °F 19.4 °F 74% 29.87 in 10.0 mi West 15.0 mph 23.0 mph N/A   Overcast
5:35 PM 26.6 °F 14.7 °F 17.6 °F 69% 29.88 in 10.0 mi WNW 15.0 mph 21.9 mph N/A   Overcast
5:55 PM 26.6 °F 14.3 °F 17.6 °F 69% 29.89 in 10.0 mi WNW 16.1 mph 21.9 mph N/A   Overcast
6:15 PM 26.6 °F 16.2 °F 17.6 °F 69% 29.90 in 10.0 mi WNW 11.5 mph 18.4 mph N/A   Overcast
6:35 PM 26.6 °F 15.2 °F 17.6 °F 69% 29.92 in 10.0 mi WNW 13.8 mph 20.7 mph N/A   Unknown
6:55 PM 26.6 °F 14.7 °F 15.8 °F 64% 29.93 in 10.0 mi WNW 15.0 mph 20.7 mph N/A   Overcast
7:15 PM 26.6 °F 15.7 °F 17.6 °F 69% 29.94 in 10.0 mi WNW 12.7 mph 20.7 mph N/A   Overcast
7:35 PM 26.6 °F 16.2 °F 17.6 °F 69% 29.94 in 1.0 mi WNW 11.5 mph 17.3 mph N/A   Haze
7:55 PM 26.6 °F 16.8 °F 17.6 °F 69% 29.94 in 10.0 mi WNW 10.4 mph 18.4 mph N/A   Overcast
8:15 PM 26.6 °F 17.5 °F 19.4 °F 74% 29.94 in 10.0 mi West 9.2 mph - N/A Snow Light Snow
8:35 PM 26.6 °F 15.7 °F 17.6 °F 69% 29.95 in 10.0 mi West 12.7 mph 18.4 mph N/A   Overcast
8:55 PM 26.6 °F 17.5 °F 17.6 °F 69% 29.96 in 10.0 mi West 9.2 mph - N/A   Overcast
9:15 PM 26.6 °F 16.8 °F 17.6 °F 69% 29.97 in 10.0 mi West 10.4 mph 18.4 mph N/A   Overcast
9:35 PM 26.6 °F 16.8 °F 15.8 °F 64% 29.96 in 10.0 mi West 10.4 mph - N/A   Overcast
9:55 PM 26.6 °F 20.0 °F 17.6 °F 69% 29.96 in 10.0 mi West 5.8 mph - N/A   Overcast
10:15 PM 24.8 °F 19.1 °F 17.6 °F 74% 29.96 in 10.0 mi West 4.6 mph - N/A   Overcast
10:35 PM 23.0 °F 17.0 °F 15.8 °F 74% 29.96 in 10.0 mi WSW 4.6 mph - N/A   Scattered Clouds
11:15 PM 23.0 °F 15.8 °F 15.8 °F 74% 29.96 in 10.0 mi West 5.8 mph - N/A   Clear
11:35 PM 23.0 °F 18.4 °F 15.8 °F 74% 29.96 in 10.0 mi SW 3.5 mph - N/A   Clear
11:55 PM 23.0 °F 18.4 °F 15.8 °F 74% 29.96 in 10.0 mi SSW 3.5 mph - N/A   Clear